Weather History for KAPA - April, 2014

Change the Weather History Date:

Friday, April 18, 2014

  Actual Average (KDEN) Record (KDEN)
Temperature  
Mean Temperature 58 °F 48 °F  
Max Temperature 77 °F 62 °F 82 °F (1987)
Min Temperature 39 °F 34 °F 8 °F (1953)
Degree Days  
Heating Degree Days 7 17  
Month to date heating degree days 362 344  
Since 1 July heating degree days 5546  
Cooling Degree Days 0 0  
Month to date cooling degree days 0 0  
Year to date cooling degree days 0  
Growing Degree Days 8 (Base 50)    
Moisture  
Dew Point 27 °F    
Average Humidity 38    
Maximum Humidity 62    
Minimum Humidity 13    
Precipitation  
Precipitation 0.00 in 0.07 in 1.54 in (1884)
Month to date precipitation 0.67 0.89  
Year to date precipitation 2.26 2.59  
Snow  
Snow 0.00 in - - ()
Month to date snowfall  
Since 1 July snowfall  
Snow Depth -    
Sea Level Pressure  
Sea Level Pressure 29.86 in    
Wind  
Wind Speed 9 mph (South)    
Max Wind Speed 24 mph    
Max Gust Speed 30 mph    
Visibility 10 miles    
Events      
T = Trace of Precipitation, MM = Missing Value Source: NWS Daily Summary

Daily Weather History Graph

Daily Weather History Graph

Search for Another Location

Airport or City:

Trip Planner

Search our weather history database for the weather conditions in past years. The results will help you decide how hot, cold, wet, or windy it might be!

Date:

Astronomy

Apr. 18, 2014 Rise Set
Actual Time 6:17 AM MDT 7:40 PM MDT
Civil Twilight 5:49 AM MDT 8:08 PM MDT
Nautical Twilight 5:15 AM MDT 8:42 PM MDT
Astronomical Twilight 4:40 AM MDT 9:17 PM MDT
Moon 11:27 PM MDT (4/18) 8:42 AM MDT (4/18)
Length of Visible Light 14h 18m
Length of Day
13h 22m
Waning Gibbous, 86% of the Moon is Illuminated
Apr 18
Waning Gibbous
Apr 22
Last Quarter
Apr 29
New
May 6
First Quarter
May 14
Full

Hourly Weather History & Observations

Time (MDT) Temp. Windchill Dew Point Humidity Pressure Visibility Wind Dir Wind Speed Gust Speed Precip Events Conditions
12:44 AM 46.0 °F 39.9 °F 30.0 °F 54% 30.03 in 10.0 mi SSW 13.8 mph - N/A   Clear
12:53 AM 46.9 °F - 30.0 °F 52% 29.96 in 10.0 mi SSW 12.7 mph - N/A   Clear
1:53 AM 42.1 °F 36.6 °F 30.9 °F 65% 29.96 in 10.0 mi SE 9.2 mph - N/A   Clear
2:53 AM 42.1 °F 38.4 °F 28.0 °F 58% 29.95 in 10.0 mi SSE 5.8 mph - N/A   Clear
3:53 AM 43.0 °F 38.2 °F 27.0 °F 53% 29.94 in 10.0 mi SSE 8.1 mph - N/A   Clear
4:53 AM 42.1 °F 37.1 °F 25.0 °F 51% 29.94 in 10.0 mi SSW 8.1 mph - N/A   Clear
5:53 AM 43.0 °F 38.2 °F 25.0 °F 49% 29.94 in 10.0 mi South 8.1 mph - N/A   Partly Cloudy
6:53 AM 46.9 °F - 25.0 °F 42% 29.95 in 10.0 mi SSE 5.8 mph - N/A   Mostly Cloudy
7:53 AM 53.1 °F - 27.0 °F 37% 29.95 in 10.0 mi SSE 6.9 mph - N/A   Partly Cloudy
8:53 AM 61.0 °F - 28.0 °F 29% 29.91 in 10.0 mi SSE 6.9 mph - N/A   Partly Cloudy
9:53 AM 66.9 °F - 26.1 °F 21% 29.88 in 10.0 mi Variable 6.9 mph - N/A   Mostly Cloudy
10:53 AM 69.1 °F - 23.0 °F 18% 29.88 in 10.0 mi Variable 4.6 mph - N/A   Mostly Cloudy
11:53 AM 72.0 °F - 24.1 °F 17% 29.86 in 10.0 mi SE 3.5 mph - N/A   Mostly Cloudy
12:53 PM 75.0 °F - 23.0 °F 14% 29.82 in 10.0 mi ESE 8.1 mph 17.3 mph N/A   Mostly Cloudy
1:53 PM 75.9 °F - 24.1 °F 15% 29.79 in 10.0 mi ESE 11.5 mph 18.4 mph N/A   Scattered Clouds
3:53 PM 75.9 °F - 21.9 °F 13% 29.72 in 10.0 mi WSW 10.4 mph - N/A   Mostly Cloudy
4:53 PM 75.9 °F - 23.0 °F 14% 29.71 in 10.0 mi West 8.1 mph - N/A   Mostly Cloudy
6:53 PM 68.0 °F - 27.0 °F 21% 29.74 in 10.0 mi North 11.5 mph - N/A   Mostly Cloudy
7:53 PM 66.0 °F - 28.0 °F 24% 29.75 in 10.0 mi North 6.9 mph - N/A   Mostly Cloudy
9:53 PM 57.9 °F - 30.0 °F 35% 29.77 in 10.0 mi SSW 5.8 mph - N/A   Mostly Cloudy
10:53 PM 55.0 °F - 28.0 °F 35% 29.78 in 10.0 mi SW 6.9 mph - N/A   Scattered Clouds
11:53 PM 54.0 °F - 28.9 °F 38% 29.77 in 10.0 mi South 3.5 mph - N/A   Scattered Clouds